Temperature
16 16 16 16 16 16 15 15 15 14 14 14 14 14 14 14 14 13 13 13 13 13 13 13 13 13 13 13 13 13 13 13 12 12 12 12 12 12
16 16 16 16 15 15 15 15 15 15 14 14 14 13 13 13 13 13 13 13 13 12 12 12 12 12 12 12 12 12 12 12 12 12 12 11 11 11
16 16 16 15 15 15 15 15 15 14 14 13 13 13 13 13 13 12 12 12 12 12 12 12 11 11 11 11 11 11 11 11 11 11 11 11 11 11
15 15 15 15 15 15 15 14 14 14 14 13 13 13 12 12 12 12 12 12 12 11 11 11 11 11 11 11 11 11 10 10 10 10 10 10 10 10
15 15 15 15 15 14 14 14 14 14 14 13 13 12 12 12 12 11 11 11 11 11 11 11 10 10 10 10 10 10 10 10 10 9 9 9 9 9
14 14 14 14 14 14 14 14 13 13 13 13 12 12 12 11 11 11 11 11 10 10 10 10 10 10 10 10 10 9 9 9 9 9 9 9 9 9
14 14 14 14 14 14 13 13 13 13 13 12 12 12 11 11 11 11 11 10 10 10 10 10 10 9 9 9 9 9 9 9 8 8 8 8 8 8
14 13 13 13 13 13 13 13 13 12 12 12 12 11 11 11 11 10 10 10 10 10 10 9 9 9 9 9 9 8 8 8 8 8 8 8 7 7
13 13 13 13 13 13 12 12 12 12 12 12 11 11 11 11 10 10 10 10 10 9 9 9 9 9 8 8 8 8 8 8 8 8 7 7 7 7
13 13 13 12 12 12 12 12 12 11 11 11 11 11 10 10 10 10 10 9 9 9 9 9 8 8 8 8 8 8 8 8 7 7 7 7 7 7
12 12 12 12 12 12 12 11 11 11 11 11 10 10 10 10 10 10 9 9 9 9 9 8 8 8 8 8 8 8 8 8 7 7 7 7 7 7
12 12 12 11 11 11 11 11 11 11 10 10 10 10 10 10 9 9 9 9 9 8 8 8 8 8 8 8 8 8 8 7 7 7 7 7 7 7
12 11 11 11 11 11 11 11 10 10 10 10 10 10 9 9 9 9 9 9 9 8 8 8 8 8 8 8 8 7 7 7 7 7 7 7 7 7
11 11 11 11 11 10 10 10 10 10 10 10 10 9 9 9 9 9 9 8 8 8 8 8 8 8 8 8 7 7 7 7 7 7 7 7 7 6
11 11 10 10 10 10 10 10 10 10 10 9 9 9 9 9 9 8 8 8 8 8 8 8 8 8 7 7 7 7 7 7 7 7 7 7 6 6
11 10 10 10 10 10 10 10 10 9 9 9 9 9 9 9 8 8 8 8 8 8 8 8 8 7 7 7 7 7 7 7 7 7 6 6 6 6
10 10 10 10 10 10 10 9 9 9 9 9 9 9 8 8 8 8 8 8 8 8 8 7 7 7 7 7 7 7 7 7 7 6 6 6 6 6
10 10 10 10 10 10 9 9 9 9 9 9 9 8 8 8 8 8 8 8 8 7 7 7 7 7 7 7 7 7 6 6 6 6 6 6 6 6
10 10 10 10 10 10 10 9 9 9 9 9 8 8 8 8 8 8 8 8 8 7 7 7 7 7 7 6 6 6 6 6 6 6 6 6 6 6
10 10 10 10 10 10 10 9 9 9 9 8 8 8 8 8 8 8 8 7 7 7 7 7 7 7 6 6 6 6 6 6 6 6 6 6 6 6
10 10 10 10 10 9 9 9 9 9 8 8 8 8 8 8 8 8 7 7 7 7 7 7 7 7 6 6 6 6 6 6 6 6 6 6 6 6
10 10 10 10 9 9 9 9 9 9 9 8 8 8 8 8 7 7 7 7 7 7 7 7 6 6 6 6 6 6 6 6 6 6 5 5 5 5
10 10 9 9 9 9 9 9 9 8 8 8 8 8 7 7 7 7 7 7 7 6 6 6 6 6 6 6 6 6 6 5 5 5 5 5 5 5
Wind_Speed
1 1 1 1 1 1 2 3 3 2 1 0 1 2 4 6 7 7 7 8 8 8 8 8 8 9 10 10 10 10 10 10 10 10 9 9 9 9
1 2 1 0 0 0 1 1 2 3 1 1 1 1 4 6 7 8 8 10 10 10 9 9 9 10 10 10 10 10 9 9 9 9 9 10 10 9
2 2 2 1 1 1 1 1 2 2 2 1 2 2 3 4 5 7 7 7 8 10 9 9 9 9 9 9 9 9 9 9 9 9 10 10 9 9
2 2 2 2 3 1 1 2 2 2 3 3 2 2 3 4 5 5 5 6 6 8 8 8 8 7 7 7 8 8 8 9 9 9 9 9 9 9
2 2 2 3 2 2 2 2 2 3 3 4 3 2 2 3 4 4 4 4 5 5 6 6 6 5 5 6 6 7 8 8 8 8 8 8 8 8
2 2 2 2 2 2 3 3 4 4 5 5 4 3 2 2 3 3 3 3 3 4 5 5 6 6 6 6 6 6 6 7 7 7 7 7 7 7
3 3 3 5 5 4 3 3 4 4 4 4 4 3 2 2 2 1 2 1 2 2 2 3 3 4 5 5 5 5 5 5 5 5 5 5 5 5
3 4 5 6 7 7 7 7 6 5 4 3 3 3 2 2 2 2 2 1 0 1 1 1 2 2 2 2 3 3 3 3 3 4 3 3 3 3
3 3 4 5 6 6 8 8 7 6 4 3 3 3 3 3 3 3 2 1 1 0 1 1 1 1 1 1 1 1 1 1 1 2 1 1 1 1
3 3 4 4 4 5 6 6 5 5 4 3 3 2 2 3 4 3 3 2 2 2 1 0 0 1 1 2 2 2 2 2 2 2 2 2 1 2
4 4 4 4 4 6 6 5 5 4 6 7 6 5 5 5 6 4 4 3 1 0 0 0 0 1 1 1 2 3 2 2 2 2 2 2 3 3
3 4 4 4 4 5 4 4 3 2 3 4 5 6 5 5 5 3 3 3 1 1 1 1 0 0 1 1 2 2 2 2 3 3 3 3 3 2
2 2 1 3 4 4 4 3 3 2 2 3 3 3 3 3 2 2 2 2 2 1 2 2 1 1 1 1 1 2 1 2 2 3 4 4 4 3
2 1 1 3 3 4 3 3 5 4 3 3 2 2 2 1 1 1 1 1 1 2 3 3 2 2 1 1 1 2 2 2 2 3 4 5 5 5
2 2 2 3 3 3 3 4 4 2 2 2 1 0 0 1 1 1 2 2 2 2 1 3 2 2 2 1 1 1 2 2 2 3 3 3 4 4
1 2 3 4 3 3 2 2 1 1 2 1 1 0 0 1 1 1 1 1 1 1 2 1 2 3 2 2 2 2 2 2 2 3 3 4 5 5
3 2 2 1 1 1 1 1 1 1 1 1 1 0 0 1 1 0 0 0 0 1 1 1 1 1 3 2 2 3 3 3 3 2 2 3 4 5
4 2 2 2 2 2 2 1 1 1 1 1 1 1 1 1 1 0 1 1 1 1 1 1 0 0 1 2 5 4 3 3 3 3 2 3 4 4
3 3 3 3 3 3 3 2 2 2 2 2 2 2 2 2 1 1 1 1 2 2 2 1 1 1 2 4 3 5 4 3 3 3 3 3 4 5
3 4 4 4 3 3 3 3 3 2 2 2 3 2 2 2 2 2 2 3 2 2 2 2 2 3 3 4 4 3 6 5 3 4 3 3 4 6
4 4 4 4 4 4 3 3 3 3 3 3 3 3 3 3 3 3 3 3 3 3 3 4 3 4 3 2 3 4 3 6 6 4 3 3 4 3
4 4 4 4 4 4 3 3 3 3 3 3 3 3 3 3 3 4 3 3 4 4 4 4 2 2 2 3 5 5 4 4 5 6 7 6 3 4
4 4 4 4 4 4 4 4 4 4 4 3 3 3 3 3 3 3 4 4 4 4 4 3 2 2 2 3 4 5 5 5 3 3 4 6 9 10
Wind_Direction
143 134 146 218 198 200 187 183 176 191 230 172 79 50 77 78 76 83 83 80 81 81 80 79 83 85 82 78 76 74 71 70 69 68 69 67 69 71
72 92 80 33 111 147 182 201 193 178 178 86 81 63 84 89 81 83 82 79 76 79 80 80 81 83 82 79 75 73 72 72 72 72 71 69 70 69
50 69 48 41 63 66 104 116 118 131 151 120 78 70 83 94 87 86 83 82 81 79 79 79 80 79 77 77 75 73 71 71 72 72 71 69 71 71
70 71 46 55 56 56 97 112 117 122 144 139 116 88 84 102 96 90 85 84 86 82 80 79 78 76 76 79 79 77 76 75 75 73 71 70 72 71
83 81 64 74 63 62 85 96 103 110 119 132 120 94 90 98 88 79 75 65 79 80 76 76 76 75 75 77 79 80 82 81 78 74 71 70 72 75
74 74 74 84 88 88 88 93 105 107 112 121 120 110 103 96 97 92 77 51 51 56 61 66 69 70 69 71 74 77 79 80 78 73 70 69 71 74
70 61 68 78 84 89 99 107 112 115 119 122 124 119 120 122 132 128 111 78 48 45 49 41 48 53 52 55 60 66 74 76 76 71 65 65 72 73
80 64 69 69 78 78 85 92 103 120 130 131 138 150 166 162 142 142 132 109 74 23 55 37 41 35 26 39 42 54 66 69 67 64 56 57 66 70
85 80 78 73 76 82 77 77 76 82 104 140 150 170 176 174 160 154 156 146 170 117 110 76 36 12 342 343 345 349 350 359 13 16 19 27 39 39
82 92 94 82 82 93 89 77 67 60 71 95 137 153 152 158 164 161 151 122 89 75 87 128 4 315 321 319 311 298 292 303 308 321 341 335 314 305
70 77 91 88 84 98 97 88 72 54 65 79 91 93 95 109 130 124 120 121 118 120 51 145 266 307 304 303 326 324 292 288 295 298 313 321 310 302
70 61 69 87 92 107 111 109 95 64 67 70 68 67 77 90 110 133 153 148 137 178 174 170 161 21 290 287 312 323 328 318 309 294 291 297 306 291
102 77 55 81 88 104 120 127 145 127 94 88 79 68 65 70 83 108 156 169 169 200 181 172 178 182 215 278 288 284 283 286 295 289 287 286 283 257
144 150 128 104 97 102 115 119 115 105 101 94 84 68 58 39 26 31 147 186 209 227 193 178 181 185 189 250 277 293 288 278 263 272 283 291 285 273
162 160 140 117 102 94 101 113 114 114 116 114 114 106 299 311 347 38 66 75 67 60 125 180 180 176 194 220 256 273 280 282 267 272 280 282 279 278
124 107 103 95 89 84 83 93 113 142 150 153 162 286 40 60 56 53 62 36 31 2 24 81 188 181 199 217 230 264 268 268 277 287 286 284 277 264
136 103 93 99 100 72 55 52 70 107 132 139 142 124 128 114 85 32 107 134 158 310 334 3 8 216 226 221 248 265 275 281 276 283 285 287 283 278
139 147 172 182 193 200 202 204 188 193 194 186 189 195 209 212 205 182 174 192 230 260 277 292 341 4 299 251 224 246 270 277 283 277 260 267 286 294
162 187 200 208 214 216 216 213 218 220 201 195 201 211 224 231 227 228 226 236 250 255 254 237 216 208 281 299 281 222 238 276 282 281 269 258 272 288
201 206 213 215 215 217 219 218 222 218 210 217 221 224 220 221 228 232 230 240 249 256 260 246 233 229 241 273 282 277 242 242 265 276 279 276 278 281
214 220 222 221 222 223 225 221 217 218 220 218 225 226 221 219 232 239 242 239 242 247 256 261 259 246 236 232 267 281 276 252 242 248 266 283 296 303
220 223 227 227 225 225 224 221 223 225 224 224 229 228 224 224 234 243 246 246 247 250 257 266 265 228 222 244 268 281 290 300 289 262 248 242 266 285
221 220 222 226 228 223 217 218 220 227 226 225 230 234 230 232 237 242 246 245 250 255 261 269 269 249 251 253 264 277 286 297 308 310 304 287 272 268
Height
1548 1548 1549 1549 1549 1549 1550 1550 1551 1550 1551 1551 1552 1552 1552 1552 1552 1552 1552 1551 1551 1551 1551 1550 1550 1549 1549 1549 1549 1549 1548 1548 1548 1547 1547 1547 1546 1546
1546 1546 1547 1547 1547 1547 1547 1548 1548 1549 1548 1549 1550 1550 1551 1551 1551 1550 1550 1550 1550 1550 1550 1549 1549 1548 1548 1548 1548 1547 1547 1546 1546 1546 1545 1544 1544 1543
1545 1545 1545 1545 1545 1545 1546 1546 1546 1547 1547 1548 1548 1549 1549 1549 1549 1550 1550 1550 1549 1549 1549 1548 1548 1548 1547 1547 1546 1546 1546 1545 1545 1544 1543 1543 1542 1542
1544 1544 1544 1544 1544 1544 1544 1544 1545 1545 1546 1546 1547 1548 1548 1549 1549 1549 1549 1549 1549 1549 1548 1548 1548 1548 1547 1546 1546 1545 1545 1544 1543 1543 1542 1541 1541 1540
1543 1543 1543 1543 1543 1543 1543 1543 1543 1544 1545 1545 1546 1547 1547 1548 1548 1548 1549 1549 1549 1548 1548 1548 1548 1547 1547 1546 1546 1545 1544 1543 1543 1542 1541 1541 1540 1539
1543 1543 1543 1543 1543 1543 1542 1543 1543 1543 1544 1544 1545 1546 1547 1547 1548 1548 1548 1548 1548 1548 1548 1548 1548 1547 1547 1546 1545 1545 1544 1543 1543 1542 1541 1540 1539 1539
1543 1542 1542 1542 1542 1542 1542 1542 1542 1542 1543 1543 1544 1545 1546 1546 1547 1547 1548 1548 1548 1548 1548 1548 1547 1547 1546 1546 1545 1545 1544 1543 1543 1542 1541 1540 1539 1538
1542 1542 1542 1542 1542 1542 1542 1542 1542 1542 1542 1543 1543 1544 1545 1546 1546 1547 1547 1547 1547 1548 1547 1547 1547 1546 1546 1546 1545 1545 1544 1543 1543 1542 1541 1540 1539 1538
1542 1542 1542 1542 1542 1542 1542 1542 1542 1542 1543 1543 1543 1543 1544 1545 1545 1546 1546 1546 1546 1547 1547 1546 1546 1546 1546 1545 1545 1544 1544 1543 1542 1541 1541 1540 1538 1537
1541 1541 1542 1542 1542 1542 1542 1542 1542 1542 1542 1542 1543 1543 1544 1544 1545 1545 1545 1546 1546 1546 1546 1546 1546 1545 1545 1545 1544 1544 1543 1542 1542 1541 1540 1539 1538 1537
1541 1542 1542 1542 1542 1543 1543 1543 1542 1543 1543 1543 1543 1543 1543 1544 1544 1544 1544 1544 1544 1545 1545 1545 1544 1544 1544 1544 1543 1543 1542 1542 1541 1540 1539 1538 1537 1536
1541 1542 1542 1542 1543 1543 1543 1543 1543 1543 1543 1543 1543 1543 1543 1543 1543 1543 1543 1543 1543 1543 1543 1543 1543 1543 1543 1543 1542 1542 1541 1541 1540 1539 1538 1537 1536 1535
1541 1541 1542 1542 1543 1543 1543 1543 1544 1544 1543 1543 1543 1543 1543 1543 1543 1543 1543 1543 1543 1543 1543 1542 1542 1541 1541 1541 1541 1541 1540 1540 1539 1538 1537 1536 1535 1534
1540 1541 1542 1542 1543 1543 1543 1543 1544 1544 1543 1543 1543 1543 1543 1543 1543 1542 1542 1542 1542 1542 1541 1541 1541 1540 1540 1539 1539 1539 1539 1538 1537 1536 1536 1535 1534 1532
1540 1541 1541 1542 1542 1543 1543 1543 1543 1543 1543 1543 1543 1542 1542 1542 1542 1542 1542 1542 1541 1541 1540 1540 1540 1539 1539 1538 1537 1537 1536 1536 1535 1534 1533 1532 1531 1530
1539 1540 1541 1541 1542 1542 1542 1542 1542 1542 1542 1542 1542 1542 1542 1542 1542 1541 1541 1541 1540 1540 1539 1539 1538 1538 1537 1536 1536 1535 1534 1534 1533 1532 1531 1530 1529 1528
1539 1539 1540 1540 1541 1541 1541 1541 1541 1541 1541 1541 1541 1541 1541 1541 1541 1540 1540 1539 1539 1538 1538 1537 1537 1536 1535 1535 1534 1533 1532 1531 1531 1529 1528 1527 1526 1525
1537 1538 1538 1539 1539 1539 1539 1540 1540 1540 1540 1540 1540 1540 1540 1539 1539 1539 1538 1538 1537 1537 1536 1535 1535 1534 1534 1533 1532 1531 1530 1529 1528 1527 1526 1524 1523 1523
1535 1535 1536 1537 1537 1538 1538 1538 1538 1538 1538 1538 1538 1538 1538 1538 1537 1537 1536 1536 1535 1535 1534 1533 1533 1532 1531 1530 1530 1529 1527 1526 1525 1524 1523 1522 1520 1520
1532 1533 1534 1534 1535 1535 1535 1535 1536 1536 1536 1536 1535 1535 1535 1535 1535 1534 1534 1533 1532 1532 1531 1531 1530 1529 1528 1528 1527 1526 1525 1523 1522 1521 1520 1518 1517 1517
1529 1530 1531 1532 1532 1532 1533 1533 1533 1533 1533 1533 1533 1532 1532 1532 1532 1531 1531 1530 1530 1529 1528 1528 1527 1527 1526 1525 1524 1522 1522 1521 1519 1518 1516 1515 1514 1513
1526 1527 1528 1528 1529 1529 1529 1530 1530 1529 1529 1530 1529 1529 1529 1528 1528 1528 1527 1527 1526 1525 1525 1525 1524 1523 1522 1521 1520 1519 1518 1517 1516 1515 1513 1512 1511 1509
1523 1524 1524 1525 1525 1526 1526 1526 1526 1526 1526 1526 1526 1525 1525 1525 1524 1524 1523 1523 1522 1522 1521 1521 1520 1519 1518 1517 1516 1515 1514 1513 1512 1511 1510 1509 1508 1506